Time,TemperatureF,DewpointF,PressureIn,WindDirection,WindDirectionDegrees,WindSpeedMPH,WindSpeedGustMPH,Humidity,HourlyPrecipIn,Conditions,Clouds,dailyrainin,SoftwareType,DateUTC
2013-03-16 00:00:00,26.6,13.4,27.82,WNW,292,8.1,9.8,57,0.00,,---,0.00,VWS V14.01,2013-03-16 04:00:00,
2013-03-16 00:05:00,26.6,13.8,27.85,NW,315,6.5,10.3,58,0.00,,---,0.00,VWS V14.01,2013-03-16 04:05:00,
2013-03-16 00:10:00,26.4,14.1,27.85,NE,45,6.5,9.8,59,0.00,,---,0.00,VWS V14.01,2013-03-16 04:10:00,
2013-03-16 00:15:00,26.4,14.1,27.85,SSE,158,1.3,6.0,59,0.00,,---,0.00,VWS V14.01,2013-03-16 04:15:00,
2013-03-16 00:20:00,26.2,13.9,27.85,South,180,2.5,2.9,59,0.00,,---,0.00,VWS V14.01,2013-03-16 04:20:00,
2013-03-16 00:25:00,26.4,13.7,27.85,NW,315,4.3,8.1,58,0.00,,---,0.00,VWS V14.01,2013-03-16 04:25:00,
2013-03-16 00:30:00,26.2,14.3,27.85,NNW,338,5.6,7.4,60,0.00,,---,0.00,VWS V14.01,2013-03-16 04:30:00,
2013-03-16 00:35:00,26.2,13.9,27.85,WNW,292,7.4,7.4,59,0.00,,---,0.00,VWS V14.01,2013-03-16 04:35:00,
2013-03-16 00:40:00,26.2,13.9,27.85,WNW,292,3.6,3.6,59,0.00,,---,0.00,VWS V14.01,2013-03-16 04:40:00,
2013-03-16 00:45:00,26.1,14.1,27.85,NW,315,7.2,7.6,60,0.00,,---,0.00,VWS V14.01,2013-03-16 04:45:00,
2013-03-16 00:50:00,26.1,14.1,27.88,North,0,4.3,4.3,60,0.00,,---,0.00,VWS V14.01,2013-03-16 04:50:00,
2013-03-16 00:55:00,26.1,14.1,27.88,WNW,292,9.8,9.8,60,0.00,,---,0.00,VWS V14.01,2013-03-16 04:55:00,
2013-03-16 01:00:00,26.1,14.8,27.88,WNW,292,14.3,14.3,62,0.00,,---,0.00,VWS V14.01,2013-03-16 05:00:00,
2013-03-16 01:05:00,25.9,15.4,27.82,WNW,292,3.8,4.0,64,0.00,,---,0.00,VWS V14.01,2013-03-16 05:05:00,
2013-03-16 01:10:00,25.7,15.9,27.82,NNW,338,15.4,16.6,66,0.00,,---,0.00,VWS V14.01,2013-03-16 05:10:00,
2013-03-16 01:15:00,24.8,16.4,27.82,NNW,338,12.5,13.0,70,0.00,,---,0.00,VWS V14.01,2013-03-16 05:15:00,
2013-03-16 01:20:00,23.9,15.6,27.85,WNW,292,9.2,14.3,70,0.00,,---,0.00,VWS V14.01,2013-03-16 05:20:00,
2013-03-16 01:25:00,23.5,15.5,27.85,NW,315,5.8,10.3,71,0.00,,---,0.00,VWS V14.01,2013-03-16 05:25:00,
2013-03-16 01:30:00,23.4,15.7,27.85,WNW,292,6.0,7.4,72,0.00,,---,0.00,VWS V14.01,2013-03-16 05:30:00,
2013-03-16 01:35:00,23.2,15.8,27.85,NNW,338,12.3,12.3,73,0.00,,---,0.00,VWS V14.01,2013-03-16 05:35:00,
2013-03-16 01:40:00,23.0,16.3,27.85,WNW,292,6.9,8.7,75,0.00,,---,0.00,VWS V14.01,2013-03-16 05:40:00,
2013-03-16 01:45:00,22.8,16.1,27.85,NW,315,10.3,10.3,75,0.00,,---,0.00,VWS V14.01,2013-03-16 05:45:00,
2013-03-16 01:50:00,22.8,16.7,27.88,West,270,7.6,7.6,77,0.00,,---,0.00,VWS V14.01,2013-03-16 05:50:00,
2013-03-16 01:55:00,22.6,16.8,27.88,NW,315,6.3,6.3,78,0.00,,---,0.00,VWS V14.01,2013-03-16 05:55:00,
2013-03-16 02:00:00,22.6,16.8,27.88,NNW,338,4.9,6.3,78,0.00,,---,0.00,VWS V14.01,2013-03-16 06:00:00,
2013-03-16 02:05:00,22.5,16.6,27.88,NNW,338,6.0,6.0,78,0.00,,---,0.00,VWS V14.01,2013-03-16 06:05:00,
2013-03-16 02:10:00,22.5,16.6,27.88,NNE,22,4.3,4.3,78,0.00,,---,0.00,VWS V14.01,2013-03-16 06:10:00,
2013-03-16 02:15:00,22.3,16.5,27.88,NW,315,5.4,5.4,78,0.00,,---,0.00,VWS V14.01,2013-03-16 06:15:00,
2013-03-16 02:20:00,22.1,15.7,27.88,WNW,292,3.4,3.8,76,0.00,,---,0.00,VWS V14.01,2013-03-16 06:20:00,
2013-03-16 02:25:00,22.1,15.7,27.88,NW,315,0.0,0.0,76,0.00,,---,0.00,VWS V14.01,2013-03-16 06:25:00,
2013-03-16 02:30:00,22.1,15.4,27.88,WNW,292,2.9,2.9,75,0.00,,---,0.00,VWS V14.01,2013-03-16 06:30:00,
2013-03-16 02:35:00,21.9,15.5,27.88,NNW,338,4.7,4.7,76,0.00,,---,0.00,VWS V14.01,2013-03-16 06:35:00,
2013-03-16 02:40:00,21.9,14.9,27.88,NW,315,4.3,4.3,74,0.00,,---,0.00,VWS V14.01,2013-03-16 06:40:00,
2013-03-16 02:45:00,21.9,14.3,27.88,NW,315,5.8,7.6,72,0.00,,---,0.00,VWS V14.01,2013-03-16 06:45:00,
2013-03-16 02:50:00,21.9,13.6,27.88,WSW,248,3.6,3.8,70,0.00,,---,0.00,VWS V14.01,2013-03-16 06:50:00,
2013-03-16 02:55:00,21.7,13.1,27.88,North,0,7.4,7.4,69,0.00,,---,0.00,VWS V14.01,2013-03-16 06:55:00,
2013-03-16 03:00:00,21.6,12.0,27.88,WNW,292,4.9,4.9,66,0.00,,---,0.00,VWS V14.01,2013-03-16 07:00:00,
2013-03-16 03:05:00,21.4,11.5,27.90,North,0,6.3,7.4,65,0.00,,---,0.00,VWS V14.01,2013-03-16 07:05:00,
2013-03-16 03:10:00,21.2,11.6,27.90,WNW,292,7.4,7.4,66,0.00,,---,0.00,VWS V14.01,2013-03-16 07:10:00,
2013-03-16 03:15:00,21.2,12.0,27.90,NNW,338,5.8,5.8,67,0.00,,---,0.00,VWS V14.01,2013-03-16 07:15:00,
2013-03-16 03:20:00,21.0,11.8,27.88,WNW,292,11.4,11.4,67,0.00,,---,0.00,VWS V14.01,2013-03-16 07:20:00,
2013-03-16 03:25:00,21.0,11.1,27.88,WNW,292,6.3,10.1,65,0.00,,---,0.00,VWS V14.01,2013-03-16 07:25:00,
2013-03-16 03:30:00,20.8,10.9,27.88,NW,315,5.8,5.8,65,0.00,,---,0.00,VWS V14.01,2013-03-16 07:30:00,
2013-03-16 03:35:00,20.7,10.8,27.88,WNW,292,6.5,10.7,65,0.00,,---,0.00,VWS V14.01,2013-03-16 07:35:00,
2013-03-16 03:40:00,20.3,10.4,27.88,NNW,338,8.5,8.5,65,0.00,,---,0.00,VWS V14.01,2013-03-16 07:40:00,
2013-03-16 03:45:00,20.3,10.8,27.88,NNW,338,5.4,5.4,66,0.00,,---,0.00,VWS V14.01,2013-03-16 07:45:00,
2013-03-16 03:50:00,19.9,10.4,27.90,NNW,338,5.6,5.6,66,0.00,,---,0.00,VWS V14.01,2013-03-16 07:50:00,
2013-03-16 03:55:00,19.8,10.3,27.90,NNW,338,6.0,8.1,66,0.00,,---,0.00,VWS V14.01,2013-03-16 07:55:00,
2013-03-16 04:00:00,19.9,10.4,27.90,NNW,338,6.3,6.3,66,0.00,,---,0.00,VWS V14.01,2013-03-16 08:00:00,
2013-03-16 04:05:00,19.6,10.1,27.88,NNW,338,4.9,7.4,66,0.00,,---,0.00,VWS V14.01,2013-03-16 08:05:00,
2013-03-16 04:10:00,19.6,10.1,27.88,WNW,292,6.3,6.3,66,0.00,,---,0.00,VWS V14.01,2013-03-16 08:10:00,
2013-03-16 04:15:00,19.6,10.1,27.88,WNW,292,5.6,7.6,66,0.00,,---,0.00,VWS V14.01,2013-03-16 08:15:00,
2013-03-16 04:20:00,19.4,9.9,27.88,WNW,292,3.4,4.9,66,0.00,,---,0.00,VWS V14.01,2013-03-16 08:20:00,
2013-03-16 04:25:00,19.2,9.7,27.88,NW,315,5.4,7.4,66,0.00,,---,0.00,VWS V14.01,2013-03-16 08:25:00,
2013-03-16 04:30:00,19.2,9.1,27.88,NNW,338,5.6,7.6,64,0.00,,---,0.00,VWS V14.01,2013-03-16 08:30:00,
2013-03-16 04:35:00,19.2,9.1,27.88,NW,315,4.3,4.3,64,0.00,,---,0.00,VWS V14.01,2013-03-16 08:35:00,
2013-03-16 04:40:00,19.0,8.9,27.88,NNW,338,4.0,4.0,64,0.00,,---,0.00,VWS V14.01,2013-03-16 08:40:00,
2013-03-16 04:45:00,18.7,8.9,27.88,WNW,292,2.0,2.0,65,0.00,,---,0.00,VWS V14.01,2013-03-16 08:45:00,
2013-03-16 04:50:00,18.7,8.2,27.88,NW,315,5.8,6.3,63,0.00,,---,0.00,VWS V14.01,2013-03-16 08:50:00,
2013-03-16 04:55:00,18.5,8.0,27.88,NW,315,3.6,3.6,63,0.00,,---,0.00,VWS V14.01,2013-03-16 08:55:00,
2013-03-16 05:00:00,18.3,8.2,27.88,NNW,338,1.1,4.7,64,0.00,,---,0.00,VWS V14.01,2013-03-16 09:00:00,
2013-03-16 05:05:00,18.1,8.0,27.88,NNE,22,1.6,4.0,64,0.00,,---,0.00,VWS V14.01,2013-03-16 09:05:00,
2013-03-16 05:10:00,18.1,8.4,27.88,WNW,292,4.3,6.9,65,0.00,,---,0.00,VWS V14.01,2013-03-16 09:10:00,
2013-03-16 05:15:00,18.0,8.2,27.88,NNW,338,3.6,3.6,65,0.00,,---,0.00,VWS V14.01,2013-03-16 09:15:00,
2013-03-16 05:20:00,17.8,8.0,27.88,WNW,292,0.0,0.0,65,0.00,,---,0.00,VWS V14.01,2013-03-16 09:20:00,
2013-03-16 05:25:00,17.4,7.7,27.88,NW,315,3.1,4.3,65,0.00,,---,0.00,VWS V14.01,2013-03-16 09:25:00,
2013-03-16 05:30:00,17.1,7.7,27.88,WNW,292,0.0,0.0,66,0.00,,---,0.00,VWS V14.01,2013-03-16 09:30:00,
2013-03-16 05:35:00,17.1,8.0,27.90,NNW,338,0.0,0.0,67,0.00,,---,0.00,VWS V14.01,2013-03-16 09:35:00,
2013-03-16 05:40:00,16.9,7.8,27.90,NW,315,3.8,3.8,67,0.00,,---,0.00,VWS V14.01,2013-03-16 09:40:00,
2013-03-16 05:45:00,16.7,7.7,27.90,NW,315,5.8,7.2,67,0.00,,---,0.00,VWS V14.01,2013-03-16 09:45:00,
2013-03-16 05:50:00,16.5,7.5,27.88,WNW,292,0.0,2.0,67,0.00,,---,0.00,VWS V14.01,2013-03-16 09:50:00,
2013-03-16 05:55:00,16.3,7.3,27.88,NNW,338,0.9,0.9,67,0.00,,---,0.00,VWS V14.01,2013-03-16 09:55:00,
2013-03-16 06:00:00,16.2,7.5,27.88,WNW,292,2.7,3.1,68,0.00,,---,0.00,VWS V14.01,2013-03-16 10:00:00,
2013-03-16 06:05:00,15.8,7.1,27.90,NNW,338,0.0,0.0,68,0.00,,---,0.00,VWS V14.01,2013-03-16 10:05:00,
2013-03-16 06:10:00,15.4,6.8,27.90,NNW,338,0.9,3.4,68,0.00,,---,0.00,VWS V14.01,2013-03-16 10:10:00,
2013-03-16 06:15:00,15.1,6.8,27.90,NW,315,0.0,0.0,69,0.00,,---,0.00,VWS V14.01,2013-03-16 10:15:00,
2013-03-16 06:20:00,15.1,6.8,27.90,NW,315,1.6,1.6,69,0.00,,---,0.00,VWS V14.01,2013-03-16 10:20:00,
2013-03-16 06:25:00,15.1,7.4,27.90,North,0,2.0,2.9,71,0.00,,---,0.00,VWS V14.01,2013-03-16 10:25:00,
2013-03-16 06:30:00,15.1,7.7,27.90,WNW,292,0.0,0.0,72,0.00,,---,0.00,VWS V14.01,2013-03-16 10:30:00,
2013-03-16 06:35:00,15.1,7.7,27.90,WNW,292,0.0,2.7,72,0.00,,---,0.00,VWS V14.01,2013-03-16 10:35:00,
2013-03-16 06:40:00,15.3,8.5,27.90,WNW,292,0.0,1.3,74,0.00,,---,0.00,VWS V14.01,2013-03-16 10:40:00,
2013-03-16 06:45:00,15.1,8.3,27.90,WNW,292,0.0,0.0,74,0.00,,---,0.00,VWS V14.01,2013-03-16 10:45:00,
2013-03-16 06:50:00,14.9,7.8,27.90,WNW,292,0.0,0.0,73,0.00,,---,0.00,VWS V14.01,2013-03-16 10:50:00,
2013-03-16 06:55:00,14.2,6.8,27.90,NNW,338,0.0,0.0,72,0.00,,---,0.00,VWS V14.01,2013-03-16 10:55:00,
2013-03-16 07:00:00,13.8,6.8,27.90,North,0,0.0,0.0,73,0.00,,---,0.00,VWS V14.01,2013-03-16 11:00:00,
2013-03-16 07:05:00,13.5,6.4,27.90,NNW,338,0.0,0.0,73,0.00,,---,0.00,VWS V14.01,2013-03-16 11:05:00,
2013-03-16 07:10:00,13.3,6.3,27.90,NNW,338,0.0,0.0,73,0.00,,---,0.00,VWS V14.01,2013-03-16 11:10:00,
2013-03-16 07:15:00,13.5,6.4,27.90,North,0,1.3,1.3,73,0.00,,---,0.00,VWS V14.01,2013-03-16 11:15:00,
2013-03-16 07:20:00,13.8,6.8,27.90,NNE,22,0.0,0.0,73,0.00,,---,0.00,VWS V14.01,2013-03-16 11:20:00,
2013-03-16 07:25:00,14.4,8.2,27.90,NNW,338,0.0,0.0,76,0.00,,---,0.00,VWS V14.01,2013-03-16 11:25:00,
2013-03-16 07:30:00,15.1,8.9,27.90,ENE,68,0.0,0.0,76,0.00,,---,0.00,VWS V14.01,2013-03-16 11:30:00,
2013-03-16 07:35:00,15.4,9.2,27.90,North,0,0.9,0.9,76,0.00,,---,0.00,VWS V14.01,2013-03-16 11:35:00,
2013-03-16 07:40:00,16.5,10.3,27.90,NNW,338,0.0,0.0,76,0.00,,---,0.00,VWS V14.01,2013-03-16 11:40:00,
2013-03-16 07:45:00,17.8,11.2,27.90,NW,315,0.0,0.0,75,0.00,,---,0.00,VWS V14.01,2013-03-16 11:45:00,
2013-03-16 07:50:00,17.8,10.6,27.88,NNE,22,0.0,0.0,73,0.00,,---,0.00,VWS V14.01,2013-03-16 11:50:00,
2013-03-16 07:55:00,17.6,9.8,27.88,North,0,0.0,0.0,71,0.00,,---,0.00,VWS V14.01,2013-03-16 11:55:00,
2013-03-16 08:00:00,18.5,10.7,27.88,WNW,292,0.0,0.0,71,0.00,,---,0.00,VWS V14.01,2013-03-16 12:00:00,
2013-03-16 08:05:00,19.4,11.9,27.90,WNW,292,0.0,0.0,72,0.00,,---,0.00,VWS V14.01,2013-03-16 12:05:00,
2013-03-16 08:10:00,20.5,12.3,27.90,WNW,292,0.0,0.0,70,0.00,,---,0.00,VWS V14.01,2013-03-16 12:10:00,
2013-03-16 08:15:00,21.9,13.0,27.90,WNW,292,0.0,0.0,68,0.00,,---,0.00,VWS V14.01,2013-03-16 12:15:00,
2013-03-16 08:20:00,23.0,13.4,27.90,WNW,292,0.0,0.0,66,0.00,,---,0.00,VWS V14.01,2013-03-16 12:20:00,
2013-03-16 08:25:00,24.3,14.6,27.90,WNW,292,0.0,0.0,66,0.00,,---,0.00,VWS V14.01,2013-03-16 12:25:00,
2013-03-16 08:30:00,26.1,14.5,27.90,WNW,292,0.0,0.0,61,0.00,,---,0.00,VWS V14.01,2013-03-16 12:30:00,
2013-03-16 08:35:00,27.0,14.2,27.90,WNW,292,0.0,0.0,58,0.00,,---,0.00,VWS V14.01,2013-03-16 12:35:00,
2013-03-16 08:40:00,27.5,13.9,27.90,WNW,292,0.0,0.0,56,0.00,,---,0.00,VWS V14.01,2013-03-16 12:40:00,
2013-03-16 08:45:00,27.1,12.7,27.90,NW,315,0.0,0.0,54,0.00,,---,0.00,VWS V14.01,2013-03-16 12:45:00,
2013-03-16 08:50:00,27.7,12.8,27.90,WNW,292,2.7,2.7,53,0.00,,---,0.00,VWS V14.01,2013-03-16 12:50:00,
2013-03-16 08:55:00,28.6,12.8,27.90,NNW,338,2.7,2.9,51,0.00,,---,0.00,VWS V14.01,2013-03-16 12:55:00,
2013-03-16 09:00:00,29.1,11.4,27.90,NNW,338,0.0,0.0,47,0.00,,---,0.00,VWS V14.01,2013-03-16 13:00:00,
2013-03-16 09:05:00,31.3,13.9,27.90,SSW,202,2.5,2.5,48,0.00,,---,0.00,VWS V14.01,2013-03-16 13:05:00,
2013-03-16 09:10:00,31.1,11.8,27.90,WNW,292,2.0,3.4,44,0.00,,---,0.00,VWS V14.01,2013-03-16 13:10:00,
2013-03-16 09:15:00,30.9,10.5,27.90,NNW,338,0.0,0.0,42,0.00,,---,0.00,VWS V14.01,2013-03-16 13:15:00,
2013-03-16 09:20:00,28.0,8.4,27.90,SSE,158,1.1,1.1,43,0.00,,---,0.00,VWS V14.01,2013-03-16 13:20:00,
2013-03-16 09:25:00,27.0,7.5,27.90,SSW,202,0.0,0.0,43,0.00,,---,0.00,VWS V14.01,2013-03-16 13:25:00,
2013-03-16 09:30:00,27.0,8.0,27.90,NW,315,1.6,2.2,44,0.00,,---,0.00,VWS V14.01,2013-03-16 13:30:00,
2013-03-16 09:35:00,26.4,7.5,27.88,SSE,158,2.7,2.7,44,0.00,,---,0.00,VWS V14.01,2013-03-16 13:35:00,
2013-03-16 09:40:00,26.6,8.1,27.88,WSW,248,0.0,0.0,45,0.00,,---,0.00,VWS V14.01,2013-03-16 13:40:00,
2013-03-16 09:45:00,26.6,7.6,27.88,SSW,202,2.7,3.1,44,0.00,,---,0.00,VWS V14.01,2013-03-16 13:45:00,
2013-03-16 09:50:00,26.4,8.0,27.88,SSE,158,0.0,0.0,45,0.00,,---,0.00,VWS V14.01,2013-03-16 13:50:00,
2013-03-16 09:55:00,27.5,9.0,27.88,SSW,202,2.9,2.9,45,0.00,,---,0.00,VWS V14.01,2013-03-16 13:55:00,
2013-03-16 10:00:00,26.2,6.8,27.88,SSW,202,2.2,2.2,43,0.00,,---,0.00,VWS V14.01,2013-03-16 14:00:00,
2013-03-16 10:05:00,26.6,7.6,27.90,SW,225,3.1,3.1,44,0.00,,---,0.00,VWS V14.01,2013-03-16 14:05:00,
2013-03-16 10:10:00,28.0,8.9,27.90,West,270,0.0,0.0,44,0.00,,---,0.00,VWS V14.01,2013-03-16 14:10:00,
2013-03-16 10:15:00,27.1,7.1,27.90,SSW,202,2.2,2.2,42,0.00,,---,0.00,VWS V14.01,2013-03-16 14:15:00,
2013-03-16 10:20:00,28.0,8.4,27.88,South,180,1.6,2.0,43,0.00,,---,0.00,VWS V14.01,2013-03-16 14:20:00,
2013-03-16 10:25:00,30.7,10.4,27.88,SSW,202,4.0,4.0,42,0.00,,---,0.00,VWS V14.01,2013-03-16 14:25:00,
2013-03-16 10:30:00,28.2,7.0,27.88,SSW,202,5.4,5.4,40,0.00,,---,0.00,VWS V14.01,2013-03-16 14:30:00,
2013-03-16 10:35:00,31.1,10.2,27.90,NNW,338,0.0,0.0,41,0.00,,---,0.00,VWS V14.01,2013-03-16 14:35:00,
2013-03-16 10:40:00,33.6,11.9,27.90,North,0,0.0,0.0,40,0.00,,---,0.00,VWS V14.01,2013-03-16 14:40:00,
2013-03-16 10:45:00,34.3,12.0,27.90,NNE,22,1.6,3.6,39,0.00,,---,0.00,VWS V14.01,2013-03-16 14:45:00,
2013-03-16 10:50:00,32.2,7.6,27.90,ESE,112,3.4,3.8,35,0.00,,---,0.00,VWS V14.01,2013-03-16 14:50:00,
2013-03-16 10:55:00,34.5,10.3,27.90,SW,225,2.5,2.5,36,0.00,,---,0.00,VWS V14.01,2013-03-16 14:55:00,
2013-03-16 11:00:00,34.5,10.9,27.90,SSW,202,3.4,3.4,37,0.00,,---,0.00,VWS V14.01,2013-03-16 15:00:00,
2013-03-16 11:05:00,32.9,7.6,27.88,NNW,338,3.1,4.9,34,0.00,,---,0.00,VWS V14.01,2013-03-16 15:05:00,
2013-03-16 11:10:00,30.0,5.7,27.88,SSW,202,3.4,4.0,35,0.00,,---,0.00,VWS V14.01,2013-03-16 15:10:00,
2013-03-16 11:15:00,29.3,5.7,27.88,NW,315,0.9,2.5,36,0.00,,---,0.00,VWS V14.01,2013-03-16 15:15:00,
2013-03-16 11:20:00,29.8,7.9,27.88,SSE,158,0.0,0.0,39,0.00,,---,0.00,VWS V14.01,2013-03-16 15:20:00,
2013-03-16 11:25:00,29.5,7.6,27.88,SSW,202,1.1,3.1,39,0.00,,---,0.00,VWS V14.01,2013-03-16 15:25:00,
2013-03-16 11:30:00,30.0,8.6,27.88,NNW,338,0.9,0.9,40,0.00,,---,0.00,VWS V14.01,2013-03-16 15:30:00,
2013-03-16 11:35:00,29.3,8.5,27.88,NW,315,4.3,4.3,41,0.00,,---,0.00,VWS V14.01,2013-03-16 15:35:00,
2013-03-16 11:40:00,29.3,8.5,27.88,SSE,158,0.0,0.0,41,0.00,,---,0.00,VWS V14.01,2013-03-16 15:40:00,
2013-03-16 11:45:00,29.7,8.9,27.88,South,180,2.2,3.1,41,0.00,,---,0.00,VWS V14.01,2013-03-16 15:45:00,
2013-03-16 11:50:00,32.5,11.5,27.85,WNW,292,0.9,0.9,41,0.00,,---,0.00,VWS V14.01,2013-03-16 15:50:00,
2013-03-16 11:55:00,33.8,9.1,27.85,North,0,0.0,1.6,35,0.00,,---,0.00,VWS V14.01,2013-03-16 15:55:00,
2013-03-16 12:00:00,36.0,9.7,27.85,WSW,248,2.9,2.9,33,0.00,,---,0.00,VWS V14.01,2013-03-16 16:00:00,
2013-03-16 12:05:00,37.9,12.1,27.85,SSE,158,2.5,2.5,34,0.00,,---,0.00,VWS V14.01,2013-03-16 16:05:00,
2013-03-16 12:10:00,37.2,12.7,27.85,North,0,3.1,3.1,36,0.00,,---,0.00,VWS V14.01,2013-03-16 16:10:00,
2013-03-16 12:15:00,33.8,7.1,27.85,WSW,248,1.1,1.6,32,0.00,,---,0.00,VWS V14.01,2013-03-16 16:15:00,
2013-03-16 12:20:00,34.9,8.0,27.85,SSW,202,3.4,3.8,32,0.00,,---,0.00,VWS V14.01,2013-03-16 16:20:00,
2013-03-16 12:25:00,31.1,4.7,27.85,SSW,202,3.1,3.1,32,0.00,,---,0.00,VWS V14.01,2013-03-16 16:25:00,
2013-03-16 12:30:00,32.5,7.3,27.85,ENE,68,1.1,1.3,34,0.00,,---,0.00,VWS V14.01,2013-03-16 16:30:00,
2013-03-16 12:35:00,32.4,6.5,27.85,NNW,338,4.9,4.9,33,0.00,,---,0.00,VWS V14.01,2013-03-16 16:35:00,
2013-03-16 12:40:00,33.8,7.8,27.85,SSW,202,3.4,3.8,33,0.00,,---,0.00,VWS V14.01,2013-03-16 16:40:00,
2013-03-16 12:45:00,34.5,8.4,27.85,West,270,3.1,3.1,33,0.00,,---,0.00,VWS V14.01,2013-03-16 16:45:00,
2013-03-16 12:50:00,34.5,7.7,27.85,SSW,202,1.1,1.3,32,0.00,,---,0.00,VWS V14.01,2013-03-16 16:50:00,
2013-03-16 12:55:00,33.6,7.6,27.85,SSW,202,6.0,6.0,33,0.00,,---,0.00,VWS V14.01,2013-03-16 16:55:00,
2013-03-16 13:00:00,34.3,8.9,27.85,South,180,3.1,3.1,34,0.00,,---,0.00,VWS V14.01,2013-03-16 17:00:00,
2013-03-16 13:05:00,33.6,8.3,27.85,SW,225,2.2,2.2,34,0.00,,---,0.00,VWS V14.01,2013-03-16 17:05:00,
2013-03-16 13:10:00,34.0,7.9,27.85,ENE,68,2.7,2.7,33,0.00,,---,0.00,VWS V14.01,2013-03-16 17:10:00,
2013-03-16 13:15:00,34.9,9.4,27.85,NNW,338,4.0,4.0,34,0.00,,---,0.00,VWS V14.01,2013-03-16 17:15:00,
2013-03-16 13:20:00,33.8,7.8,27.85,NNW,338,3.6,3.6,33,0.00,,---,0.00,VWS V14.01,2013-03-16 17:20:00,
2013-03-16 13:25:00,32.7,7.5,27.85,NNE,22,2.7,4.0,34,0.00,,---,0.00,VWS V14.01,2013-03-16 17:25:00,
2013-03-16 13:30:00,34.0,8.6,27.85,SSE,158,2.2,2.2,34,0.00,,---,0.00,VWS V14.01,2013-03-16 17:30:00,
2013-03-16 13:35:00,34.0,7.9,27.85,West,270,0.0,1.1,33,0.00,,---,0.00,VWS V14.01,2013-03-16 17:35:00,
2013-03-16 13:40:00,33.1,7.1,27.85,NNW,338,4.7,5.4,33,0.00,,---,0.00,VWS V14.01,2013-03-16 17:40:00,
2013-03-16 13:45:00,31.6,7.1,27.85,NW,315,1.6,2.9,35,0.00,,---,0.00,VWS V14.01,2013-03-16 17:45:00,
2013-03-16 13:50:00,30.9,6.5,27.85,NNW,338,3.4,3.4,35,0.00,,---,0.00,VWS V14.01,2013-03-16 17:50:00,
2013-03-16 13:55:00,30.7,6.3,27.85,NNW,338,2.0,2.5,35,0.00,,---,0.00,VWS V14.01,2013-03-16 17:55:00,
2013-03-16 14:00:00,30.0,5.7,27.85,NNW,338,3.1,3.1,35,0.00,,---,0.00,VWS V14.01,2013-03-16 18:00:00,
2013-03-16 14:05:00,29.1,5.5,27.85,ENE,68,2.5,2.5,36,0.00,,---,0.00,VWS V14.01,2013-03-16 18:05:00,
2013-03-16 14:10:00,28.2,5.3,27.85,NNW,338,5.8,6.5,37,0.00,,---,0.00,VWS V14.01,2013-03-16 18:10:00,
2013-03-16 14:15:00,28.8,5.8,27.85,NNE,22,0.9,0.9,37,0.00,,---,0.00,VWS V14.01,2013-03-16 18:15:00,
2013-03-16 14:20:00,29.1,6.7,27.85,NNW,338,2.7,2.7,38,0.00,,---,0.00,VWS V14.01,2013-03-16 18:20:00,
2013-03-16 14:25:00,28.9,6.5,27.85,NW,315,2.5,2.5,38,0.00,,---,0.00,VWS V14.01,2013-03-16 18:25:00,
2013-03-16 14:30:00,29.5,7.0,27.85,WNW,292,1.3,2.7,38,0.00,,---,0.00,VWS V14.01,2013-03-16 18:30:00,
2013-03-16 14:35:00,29.8,6.8,27.85,ENE,68,4.0,4.0,37,0.00,,---,0.00,VWS V14.01,2013-03-16 18:35:00,
2013-03-16 14:40:00,30.7,7.6,27.85,ENE,68,2.9,2.9,37,0.00,,---,0.00,VWS V14.01,2013-03-16 18:40:00,
2013-03-16 14:45:00,32.0,8.1,27.85,SW,225,1.3,1.3,36,0.00,,---,0.00,VWS V14.01,2013-03-16 18:45:00,
2013-03-16 14:50:00,30.6,5.5,27.85,SSW,202,2.9,3.6,34,0.00,,---,0.00,VWS V14.01,2013-03-16 18:50:00,
2013-03-16 14:55:00,32.5,9.2,27.85,NW,315,3.6,3.6,37,0.00,,---,0.00,VWS V14.01,2013-03-16 18:55:00,
2013-03-16 15:00:00,33.3,8.6,27.85,SW,225,2.0,2.2,35,0.00,,---,0.00,VWS V14.01,2013-03-16 19:00:00,
2013-03-16 15:05:00,31.3,7.4,27.82,NNW,338,3.8,3.8,36,0.00,,---,0.00,VWS V14.01,2013-03-16 19:05:00,
2013-03-16 15:10:00,32.7,8.7,27.82,ENE,68,2.9,2.9,36,0.00,,---,0.00,VWS V14.01,2013-03-16 19:10:00,
2013-03-16 15:15:00,31.1,6.0,27.82,South,180,2.9,2.9,34,0.00,,---,0.00,VWS V14.01,2013-03-16 19:15:00,
2013-03-16 15:20:00,31.3,8.0,27.85,ENE,68,2.9,2.9,37,0.00,,---,0.00,VWS V14.01,2013-03-16 19:20:00,
2013-03-16 15:25:00,30.2,8.8,27.85,NNW,338,2.5,3.4,40,0.00,,---,0.00,VWS V14.01,2013-03-16 19:25:00,
2013-03-16 15:30:00,29.8,8.5,27.85,NNW,338,0.9,2.2,40,0.00,,---,0.00,VWS V14.01,2013-03-16 19:30:00,
2013-03-16 15:35:00,28.9,8.2,27.82,NNE,22,4.9,5.6,41,0.00,,---,0.00,VWS V14.01,2013-03-16 19:35:00,
2013-03-16 15:40:00,29.5,8.7,27.82,NNW,338,2.5,2.5,41,0.00,,---,0.00,VWS V14.01,2013-03-16 19:40:00,
2013-03-16 15:45:00,28.6,7.9,27.82,NNW,338,3.8,4.3,41,0.00,,---,0.00,VWS V14.01,2013-03-16 19:45:00,
2013-03-16 15:50:00,28.4,8.2,27.82,NNW,338,3.6,3.6,42,0.00,,---,0.00,VWS V14.01,2013-03-16 19:50:00,
2013-03-16 15:55:00,28.4,8.2,27.82,NNE,22,2.9,2.9,42,0.00,,---,0.00,VWS V14.01,2013-03-16 19:55:00,
2013-03-16 16:00:00,27.7,8.1,27.82,North,0,4.3,4.9,43,0.00,,---,0.00,VWS V14.01,2013-03-16 20:00:00,
2013-03-16 16:05:00,27.5,9.0,27.85,North,0,2.9,2.9,45,0.00,,---,0.00,VWS V14.01,2013-03-16 20:05:00,
2013-03-16 16:10:00,27.9,9.3,27.85,NNW,338,4.9,7.2,45,0.00,,---,0.00,VWS V14.01,2013-03-16 20:10:00,
2013-03-16 16:15:00,28.0,9.4,27.85,North,0,4.9,4.9,45,0.00,,---,0.00,VWS V14.01,2013-03-16 20:15:00,
2013-03-16 16:20:00,27.9,8.8,27.85,North,0,2.9,3.6,44,0.00,,---,0.00,VWS V14.01,2013-03-16 20:20:00,
2013-03-16 16:25:00,27.9,9.3,27.85,WNW,292,3.8,3.8,45,0.00,,---,0.00,VWS V14.01,2013-03-16 20:25:00,
2013-03-16 16:30:00,27.5,9.0,27.85,NNE,22,2.5,4.7,45,0.00,,---,0.00,VWS V14.01,2013-03-16 20:30:00,
2013-03-16 16:35:00,27.3,9.3,27.82,NNW,338,3.1,3.1,46,0.00,,---,0.00,VWS V14.01,2013-03-16 20:35:00,
2013-03-16 16:40:00,26.8,8.8,27.82,North,0,6.5,6.5,46,0.00,,---,0.00,VWS V14.01,2013-03-16 20:40:00,
2013-03-16 16:45:00,26.4,9.4,27.82,NNW,338,5.4,5.4,48,0.00,,---,0.00,VWS V14.01,2013-03-16 20:45:00,
2013-03-16 16:50:00,26.8,9.3,27.85,WNW,292,3.8,3.8,47,0.00,,---,0.00,VWS V14.01,2013-03-16 20:50:00,
2013-03-16 16:55:00,26.8,9.7,27.85,North,0,2.7,2.9,48,0.00,,---,0.00,VWS V14.01,2013-03-16 20:55:00,
2013-03-16 17:00:00,26.4,9.9,27.85,NNW,338,4.3,4.3,49,0.00,,---,0.00,VWS V14.01,2013-03-16 21:00:00,
2013-03-16 17:05:00,26.4,10.3,27.82,NNW,338,2.0,2.9,50,0.00,,---,0.00,VWS V14.01,2013-03-16 21:05:00,
2013-03-16 17:10:00,27.0,10.4,27.82,NNW,338,2.5,2.5,49,0.00,,---,0.00,VWS V14.01,2013-03-16 21:10:00,
2013-03-16 17:15:00,27.0,9.9,27.82,NNW,338,1.3,1.6,48,0.00,,---,0.00,VWS V14.01,2013-03-16 21:15:00,
2013-03-16 17:20:00,26.6,10.0,27.85,NNW,338,5.8,5.8,49,0.00,,---,0.00,VWS V14.01,2013-03-16 21:20:00,
2013-03-16 17:25:00,26.2,9.7,27.85,WNW,292,3.1,3.1,49,0.00,,---,0.00,VWS V14.01,2013-03-16 21:25:00,
2013-03-16 17:30:00,26.1,9.5,27.85,NNE,22,3.6,4.7,49,0.00,,---,0.00,VWS V14.01,2013-03-16 21:30:00,
2013-03-16 17:35:00,26.1,9.5,27.85,NNW,338,5.6,5.6,49,0.00,,---,0.00,VWS V14.01,2013-03-16 21:35:00,
2013-03-16 17:40:00,25.9,9.4,27.85,NNE,22,4.9,4.9,49,0.00,,---,0.00,VWS V14.01,2013-03-16 21:40:00,
2013-03-16 17:45:00,25.7,10.1,27.85,WNW,292,5.4,6.0,51,0.00,,---,0.00,VWS V14.01,2013-03-16 21:45:00,
2013-03-16 17:50:00,25.3,9.8,27.85,WNW,292,4.3,4.3,51,0.00,,---,0.00,VWS V14.01,2013-03-16 21:50:00,
2013-03-16 17:55:00,25.3,9.8,27.85,North,0,4.0,4.3,51,0.00,,---,0.00,VWS V14.01,2013-03-16 21:55:00,
2013-03-16 18:00:00,25.2,10.0,27.85,NW,315,3.8,3.8,52,0.00,,---,0.00,VWS V14.01,2013-03-16 22:00:00,
2013-03-16 18:05:00,25.2,10.0,27.85,NNW,338,2.7,2.9,52,0.00,,---,0.00,VWS V14.01,2013-03-16 22:05:00,
2013-03-16 18:10:00,25.2,10.4,27.85,NNE,22,4.7,4.7,53,0.00,,---,0.00,VWS V14.01,2013-03-16 22:10:00,
2013-03-16 18:15:00,25.0,10.3,27.85,WNW,292,3.8,4.3,53,0.00,,---,0.00,VWS V14.01,2013-03-16 22:15:00,
2013-03-16 18:20:00,24.8,10.5,27.85,NNE,22,3.6,3.8,54,0.00,,---,0.00,VWS V14.01,2013-03-16 22:20:00,
2013-03-16 18:25:00,24.8,10.5,27.85,WNW,292,2.7,2.7,54,0.00,,---,0.00,VWS V14.01,2013-03-16 22:25:00,
2013-03-16 18:30:00,24.6,10.4,27.85,North,0,6.0,6.0,54,0.00,,---,0.00,VWS V14.01,2013-03-16 22:30:00,
2013-03-16 18:35:00,24.4,10.6,27.85,North,0,2.0,2.0,55,0.00,,---,0.00,VWS V14.01,2013-03-16 22:35:00,
2013-03-16 18:39:00,24.4,10.6,27.85,NNW,338,4.0,5.4,55,0.00,,---,0.00,VWS V14.01,2013-03-16 22:39:00,
2013-03-16 18:44:00,24.3,10.4,27.85,NNW,338,4.3,4.9,55,0.00,,---,0.00,VWS V14.01,2013-03-16 22:44:00,
2013-03-16 18:49:00,24.3,10.4,27.85,NNW,338,2.2,3.8,55,0.00,,---,0.00,VWS V14.01,2013-03-16 22:49:00,
2013-03-16 18:54:00,24.3,10.4,27.85,North,0,0.0,2.9,55,0.00,,---,0.00,VWS V14.01,2013-03-16 22:54:00,
2013-03-16 18:59:00,24.1,10.7,27.85,WNW,292,3.6,4.9,56,0.00,,---,0.00,VWS V14.01,2013-03-16 22:59:00,
2013-03-16 19:04:00,24.1,10.7,27.85,WNW,292,2.7,3.6,56,0.00,,---,0.00,VWS V14.01,2013-03-16 23:04:00,
2013-03-16 19:09:00,23.9,10.5,27.85,NW,315,3.8,3.8,56,0.00,,---,0.00,VWS V14.01,2013-03-16 23:09:00,
2013-03-16 19:14:00,23.9,10.9,27.85,WNW,292,2.7,2.7,57,0.00,,---,0.00,VWS V14.01,2013-03-16 23:14:00,
2013-03-16 19:19:00,23.7,10.7,27.88,NW,315,4.3,4.3,57,0.00,,---,0.00,VWS V14.01,2013-03-16 23:19:00,
2013-03-16 19:24:00,23.7,11.1,27.88,SSW,202,1.3,1.3,58,0.00,,---,0.00,VWS V14.01,2013-03-16 23:24:00,
2013-03-16 19:29:00,23.7,11.5,27.88,NW,315,1.6,3.8,59,0.00,,---,0.00,VWS V14.01,2013-03-16 23:29:00,
2013-03-16 19:34:00,23.5,11.3,27.85,NNW,338,2.5,3.1,59,0.00,,---,0.00,VWS V14.01,2013-03-16 23:34:00,
2013-03-16 19:39:00,23.4,11.5,27.85,NNW,338,3.4,4.0,60,0.00,,---,0.00,VWS V14.01,2013-03-16 23:39:00,
2013-03-16 19:44:00,23.2,11.4,27.85,NW,315,2.7,3.8,60,0.00,,---,0.00,VWS V14.01,2013-03-16 23:44:00,
2013-03-16 19:49:00,23.2,11.7,27.88,NNW,338,4.9,4.9,61,0.00,,---,0.00,VWS V14.01,2013-03-16 23:49:00,
2013-03-16 19:54:00,23.2,11.7,27.88,WNW,292,4.0,4.7,61,0.00,,---,0.00,VWS V14.01,2013-03-16 23:54:00,
2013-03-16 19:59:00,23.2,11.7,27.88,NNW,338,2.7,3.1,61,0.00,,---,0.00,VWS V14.01,2013-03-16 23:59:00,
2013-03-16 20:04:00,23.0,11.6,27.88,WNW,292,1.6,4.0,61,0.00,,---,0.00,VWS V14.01,2013-03-17 00:04:00,
2013-03-16 20:09:00,23.0,11.6,27.88,NW,315,3.4,4.9,61,0.00,,---,0.00,VWS V14.01,2013-03-17 00:09:00,
2013-03-16 20:14:00,22.8,11.4,27.88,NNW,338,2.5,5.8,61,0.00,,---,0.00,VWS V14.01,2013-03-17 00:14:00,
2013-03-16 20:19:00,22.6,11.2,27.88,NNW,338,5.4,5.6,61,0.00,,---,0.00,VWS V14.01,2013-03-17 00:19:00,
2013-03-16 20:24:00,22.5,11.1,27.88,WNW,292,0.0,3.6,61,0.00,,---,0.00,VWS V14.01,2013-03-17 00:24:00,
2013-03-16 20:29:00,22.3,10.9,27.88,NW,315,2.9,4.9,61,0.00,,---,0.00,VWS V14.01,2013-03-17 00:29:00,
2013-03-16 20:34:00,22.1,11.1,27.90,WNW,292,3.1,3.1,62,0.00,,---,0.00,VWS V14.01,2013-03-17 00:34:00,
2013-03-16 20:39:00,21.9,10.9,27.90,NNE,22,2.9,2.9,62,0.00,,---,0.00,VWS V14.01,2013-03-17 00:39:00,
2013-03-16 20:44:00,21.7,11.1,27.90,WNW,292,4.9,4.9,63,0.00,,---,0.00,VWS V14.01,2013-03-17 00:44:00,
2013-03-16 20:49:00,21.6,11.3,27.90,NW,315,3.8,4.3,64,0.00,,---,0.00,VWS V14.01,2013-03-17 00:49:00,
2013-03-16 20:54:00,21.6,11.6,27.90,NW,315,3.6,9.2,65,0.00,,---,0.00,VWS V14.01,2013-03-17 00:54:00,
2013-03-16 20:59:00,21.6,12.0,27.90,NW,315,6.3,6.3,66,0.00,,---,0.00,VWS V14.01,2013-03-17 00:59:00,
2013-03-16 21:04:00,21.6,12.0,27.90,WNW,292,7.6,7.8,66,0.00,,---,0.00,VWS V14.01,2013-03-17 01:04:00,
2013-03-16 21:09:00,21.6,12.0,27.90,NW,315,3.4,3.4,66,0.00,,---,0.00,VWS V14.01,2013-03-17 01:09:00,
2013-03-16 21:14:00,21.6,12.3,27.90,NNW,338,3.8,4.9,67,0.00,,---,0.00,VWS V14.01,2013-03-17 01:14:00,
2013-03-16 21:19:00,21.6,12.3,27.90,WNW,292,4.3,4.3,67,0.00,,---,0.00,VWS V14.01,2013-03-17 01:19:00,
2013-03-16 21:24:00,21.6,12.3,27.90,NNW,338,4.9,4.9,67,0.00,,---,0.00,VWS V14.01,2013-03-17 01:24:00,
2013-03-16 21:29:00,21.4,12.1,27.90,NW,315,0.0,3.6,67,0.00,,---,0.00,VWS V14.01,2013-03-17 01:29:00,
2013-03-16 21:34:00,21.2,12.0,27.90,NW,315,3.1,4.9,67,0.00,,---,0.00,VWS V14.01,2013-03-17 01:34:00,
2013-03-16 21:39:00,21.0,11.8,27.90,NNW,338,3.1,3.1,67,0.00,,---,0.00,VWS V14.01,2013-03-17 01:39:00,
2013-03-16 21:44:00,20.8,12.0,27.90,WNW,292,7.6,7.6,68,0.00,,---,0.00,VWS V14.01,2013-03-17 01:44:00,
2013-03-16 21:49:00,20.8,12.0,27.90,NW,315,4.9,5.4,68,0.00,,---,0.00,VWS V14.01,2013-03-17 01:49:00,
2013-03-16 21:54:00,20.8,12.0,27.90,NNW,338,4.0,5.6,68,0.00,,---,0.00,VWS V14.01,2013-03-17 01:54:00,
2013-03-16 21:59:00,20.7,11.8,27.90,WNW,292,5.8,6.5,68,0.00,,---,0.00,VWS V14.01,2013-03-17 01:59:00,
2013-03-16 22:04:00,20.7,11.8,27.93,NNW,338,6.3,6.3,68,0.00,,---,0.00,VWS V14.01,2013-03-17 02:04:00,
2013-03-16 22:09:00,20.5,11.9,27.93,NNW,338,4.3,5.6,69,0.00,,---,0.00,VWS V14.01,2013-03-17 02:09:00,
2013-03-16 22:14:00,20.5,11.9,27.93,NNW,338,4.9,4.9,69,0.00,,---,0.00,VWS V14.01,2013-03-17 02:14:00,
2013-03-16 22:19:00,20.5,11.9,27.93,WNW,292,5.6,6.0,69,0.00,,---,0.00,VWS V14.01,2013-03-17 02:19:00,
2013-03-16 22:24:00,20.5,11.9,27.93,WNW,292,5.4,6.5,69,0.00,,---,0.00,VWS V14.01,2013-03-17 02:24:00,
2013-03-16 22:29:00,20.5,12.3,27.93,NNW,338,4.9,7.4,70,0.00,,---,0.00,VWS V14.01,2013-03-17 02:29:00,
2013-03-16 22:34:00,20.5,12.3,27.93,WNW,292,4.7,8.7,70,0.00,,---,0.00,VWS V14.01,2013-03-17 02:34:00,
2013-03-16 22:39:00,20.3,12.1,27.93,WNW,292,3.4,3.8,70,0.00,,---,0.00,VWS V14.01,2013-03-17 02:39:00,
2013-03-16 22:44:00,20.1,11.9,27.93,WNW,292,2.7,3.1,70,0.00,,---,0.00,VWS V14.01,2013-03-17 02:44:00,
2013-03-16 22:49:00,19.9,11.8,27.96,NW,315,2.7,4.0,70,0.00,,---,0.00,VWS V14.01,2013-03-17 02:49:00,
2013-03-16 22:54:00,19.9,12.1,27.96,WSW,248,0.0,4.9,71,0.00,,---,0.00,VWS V14.01,2013-03-17 02:54:00,
2013-03-16 22:59:00,19.8,11.9,27.96,NNW,338,0.0,0.0,71,0.00,,---,0.00,VWS V14.01,2013-03-17 02:59:00,
2013-03-16 23:04:00,19.6,12.0,27.93,NNW,338,3.6,4.9,72,0.00,,---,0.00,VWS V14.01,2013-03-17 03:04:00,
2013-03-16 23:09:00,19.4,12.2,27.93,WNW,292,3.6,4.9,73,0.00,,---,0.00,VWS V14.01,2013-03-17 03:09:00,
2013-03-16 23:14:00,19.4,12.2,27.93,NW,315,4.3,4.3,73,0.00,,---,0.00,VWS V14.01,2013-03-17 03:14:00,
2013-03-16 23:19:00,19.4,12.5,27.96,WNW,292,3.6,3.6,74,0.00,,---,0.00,VWS V14.01,2013-03-17 03:19:00,
2013-03-16 23:24:00,19.2,12.3,27.96,WNW,292,1.6,4.7,74,0.00,,---,0.00,VWS V14.01,2013-03-17 03:24:00,
2013-03-16 23:29:00,19.2,12.6,27.96,WNW,292,4.0,4.0,75,0.00,,---,0.00,VWS V14.01,2013-03-17 03:29:00,
2013-03-16 23:34:00,19.0,12.7,27.96,WNW,292,2.0,4.9,76,0.00,,---,0.00,VWS V14.01,2013-03-17 03:34:00,
2013-03-16 23:39:00,19.0,12.7,27.96,NNW,338,3.1,4.9,76,0.00,,---,0.00,VWS V14.01,2013-03-17 03:39:00,
2013-03-16 23:44:00,19.0,13.0,27.96,WNW,292,4.9,6.9,77,0.00,,---,0.00,VWS V14.01,2013-03-17 03:44:00,
2013-03-16 23:49:00,18.9,12.6,27.96,WNW,292,4.0,4.0,76,0.00,,---,0.00,VWS V14.01,2013-03-17 03:49:00,
2013-03-16 23:54:00,18.9,12.6,27.96,WSW,248,4.3,4.3,76,0.00,,---,0.00,VWS V14.01,2013-03-17 03:54:00,
2013-03-16 23:59:00,18.7,12.1,27.96,NNW,338,2.9,2.9,75,0.00,,---,0.00,VWS V14.01,2013-03-17 03:59:00,